全部
Cleve Airport (Cleve, South Australia) CVC 天氣
|
Cleve, South Australia (CVC / YCEE)
晴天
靜風 |
|
15 °C |
There is no TAF data available at CVC or any nearby airports.
CVC近期METAR歷史資料
| Date | Time (ACST) | Flight Rules | Wind Dir. | Speed | Type | Height AGL (ft) | Visibility | Temp (°C) | Temp (°F) | Dew Point (°C) | Dew Point (°F) | Rel. Humid. | Pressure | Density Altitude | Remarks |
|---|---|---|---|---|---|---|---|---|---|---|---|---|---|---|---|
| 05-五月 | 18:30 | n/a | Calm | Missing | 15° | 59° | 9° | 48° | 67% | 1024 mb | 270 ft | ||||
| 05-五月 | 17:30 | n/a | 140° | 5 kt | Missing | 16° | 60° | 9° | 48° | 63% | 1024 mb | 390 ft | |||
| 05-五月 | 16:30 | n/a | 140° | 7 kt | Missing | 16° | 60° | 9° | 48° | 63% | 1023 mb | 420 ft | |||
| 05-五月 | 15:30 | n/a | 170° | 9 kt | Missing | 17° | 62° | 9° | 48° | 59% | 1023 mb | 540 ft | |||
| 05-五月 | 14:30 | n/a | 220° | 8 kt | Missing | 18° | 64° | 7° | 44° | 49% | 1023 mb | 660 ft | |||
| 05-五月 | 13:30 | n/a | 200° | 6 kt | Missing | 18° | 64° | 8° | 46° | 52% | 1023 mb | 660 ft | |||
| 05-五月 | 12:30 | n/a | 260° | 6 kt | Missing | 17° | 62° | 9° | 48° | 59% | 1024 mb | 510 ft | |||
| 05-五月 | 11:30 | n/a | 220° | 8 kt | Missing | 16° | 60° | 9° | 48° | 63% | 1024 mb | 390 ft | |||
| 05-五月 | 10:30 | n/a | 210° | 7 kt | Missing | 15° | 59° | 8° | 46° | 63% | 1024 mb | 270 ft | |||
| 05-五月 | 09:30 | n/a | 260° | 8 kt | Missing | 14° | 57° | 10° | 50° | 77% | 1024 mb | 150 ft | |||
| 05-五月 | 08:30 | n/a | 270° | 5 kt | Missing | 12° | 53° | 11° | 51° | 94% | 1024 mb | -90 ft | |||
| 05-五月 | 07:30 | n/a | 290° | 6 kt | Missing | 11° | 51° | 10° | 50° | 94% | 1023 mb | -180 ft | |||
| 05-五月 | 06:30 | n/a | 290° | 7 kt | Missing | 11° | 51° | 10° | 50° | 94% | 1023 mb | -180 ft | |||
| 05-五月 | 05:30 | n/a | 270° | 7 kt | Missing | 11° | 51° | 10° | 50° | 94% | 1023 mb | -180 ft | |||
| 05-五月 | 04:30 | n/a | 270° | 8 kt | Missing | 12° | 53° | 11° | 51° | 94% | 1022 mb | -31 ft | |||
| 05-五月 | 03:30 | n/a | 290° | 7 kt | Missing | 11° | 51° | 10° | 50° | 94% | 1022 mb | -151 ft | |||
| 05-五月 | 02:30 | n/a | 290° | 7 kt | Missing | 11° | 51° | 10° | 50° | 94% | 1022 mb | -151 ft | |||
| 05-五月 | 01:30 | n/a | 290° | 6 kt | Missing | 12° | 53° | 11° | 51° | 94% | 1022 mb | -31 ft | |||
| 05-五月 | 00:30 | n/a | 280° | 7 kt | Missing | 12° | 53° | 10° | 50° | 88% | 1022 mb | -31 ft | |||
| 04-五月 | 23:30 | n/a | 290° | 9 kt | Missing | 12° | 53° | 10° | 50° | 88% | 1022 mb | -31 ft | |||
| 04-五月 | 22:30 | n/a | 280° | 7 kt | Missing | 12° | 53° | 10° | 50° | 88% | 1022 mb | -31 ft | |||
| 04-五月 | 21:30 | n/a | 270° | 8 kt | Missing | 13° | 55° | 11° | 51° | 88% | 1022 mb | 89 ft | |||
| 04-五月 | 20:30 | n/a | 270° | 8 kt | Missing | 13° | 55° | 11° | 51° | 88% | 1021 mb | 119 ft | |||
| 04-五月 | 19:30 | n/a | 270° | 8 kt | Missing | 13° | 55° | 10° | 50° | 82% | 1020 mb | 148 ft |
登入
| 您的瀏覽器不支援. 升級您的瀏覽器 |
